[[{"header":{"parameterUnit":"m.s-1","parameterCategory":2,"la1":30.2991,"la2":30.254,"lo1":-89.0895,"lo2":-89.0444,"dy":0.0017,"dx":0.0017,"nx":28,"ny":28,"refTime":"2024-08-02T09:00:00:Z","depth":"0","parameterNumber":2,"parameterNumberName":"U-component_of_CURRENTS"},"data":[0,0,0,0,0,0,0,0,0,0,0,0,0,0,0,0,0,0,0,0,0,0,0,0,0,0,0,0,0,0,0,0,0,0,0,0,0,0,0,0,0,0,0,0,0,0,0,0,0,0,0,0,0,0,0,0,0,0,0.322,0.322,0,0.3239,0.3239,0.3239,0.3251,0.3251,0.3251,0.3251,0.3206,0.3204,0.3203,0,0,0,0,0,0,0,0,0,0,0,0,0,0.3053,0.3057,0.322,0.322,0.322,0.3239,0.3239,0.3239,0.3251,0.3251,0.3251,0.3251,0.3206,0.3204,0.3203,0,0,0,0,0,0,0,0,0,0,0,0,0,0.3103,0.3058,0.322,0.323,0.3231,0.3239,0.3239,0.3239,0.3251,0.3251,0.3251,0.3251,0.3207,0.3205,0.3202,0.3184,0,0,0.3196,0.3195,0,0,0,0,0,0,0,0,0.31,0.3109,0.3228,0.3229,0.323,0.3244,0.3163,0.3218,0.325,0.3242,0.3251,0.3252,0.3213,0.321,0.3212,0.3182,0.318,0.3196,0.3195,0.3194,0.3193,0,0,0,0,0,0,0,0.3097,0.3107,0.3226,0.3228,0.323,0.3185,0.3193,0.3173,0.3223,0.3242,0.3244,0.3248,0.3213,0.3214,0.3211,0.3179,0.3196,0.3194,0.3193,0.3192,0.3179,0.318,0,0,0,0,0,0,0.3105,0.3105,0.3225,0.3227,0.3166,0.3188,0.3198,0.3238,0.3225,0.3224,0.3248,0.3248,0.3218,0.3214,0.3209,0.3231,0.3194,0.3192,0.3191,0.3178,0.3179,0.318,0,0,0,0,0,0,0.3102,0.3117,0.3225,0.3164,0.3175,0.3192,0.3236,0.3238,0.3244,0.323,0.3228,0.3252,0.3218,0.3212,0.3212,0.3227,0.3191,0.3189,0.3177,0.3179,0.318,0.3244,0,0,0,0,0,0,0.3098,0.3117,0.3139,0.3167,0.3179,0.3246,0.3236,0.3238,0.3246,0.3248,0.3232,0.3228,0.3218,0.3215,0.321,0.3224,0.3187,0.3176,0.3178,0.3179,0.3241,0.3248,0.3253,0,0,0,0,0,0.3093,0.3133,0.3141,0.3155,0.3215,0.3247,0.3249,0.3258,0.3246,0.3261,0.3252,0.3229,0.3222,0.3215,0.3208,0.3221,0.3175,0.3177,0.3179,0.3238,0.3246,0.3253,0,0,0,0,0,0,0.3079,0.3139,0.3149,0.3208,0.323,0.325,0.3261,0.3258,0.3262,0.3259,0.3238,0.3235,0.3243,0.3221,0.3212,0.3224,0.3195,0.3196,0.3242,0.325,0.3256,0.3264,0.3186,0,0,0,0,0,0.3086,0.3133,0.3171,0.3217,0.323,0.3241,0.3249,0.3258,0.3267,0.3269,0.3257,0.3245,0.3245,0.3239,0.3234,0.3231,0.3287,0.3236,0.3243,0.3248,0.3251,0.334,0.3356,0.3187,0.3187,0.3187,0,0,0.3093,0.3131,0.3157,0.3215,0.3232,0.3256,0.3248,0.3274,0.3288,0.326,0.3272,0.3266,0.325,0.3263,0.3263,0.3245,0.3342,0.3251,0.3255,0.3255,0.3344,0.3361,0.3376,0.3188,0.3188,0.3188,0,0,0.3124,0.3167,0.3208,0.3226,0.3257,0.3268,0.3276,0.3298,0.3305,0.3314,0.3306,0.3319,0.3295,0.3309,0.3305,0.3338,0.3375,0.3324,0.3356,0.3444,0.3459,0.3473,0.3642,0.367,0.3323,0.3323,0.3323,0,0.3117,0.3185,0.322,0.3251,0.3262,0.3275,0.33,0.3313,0.3329,0.3336,0.3325,0.3332,0.3324,0.3351,0.3367,0.3354,0.3432,0.333,0.3455,0.3469,0.3482,0.3652,0.3682,0.3326,0.3326,0.3326,0.3325,0,0.317,0.3213,0.3236,0.3285,0.3306,0.3328,0.3352,0.3369,0.3368,0.3375,0.34,0.3403,0.3413,0.341,0.3395,0.3471,0.3513,0.3461,0.3442,0.3504,0.3679,0.3709,0.3331,0.333,0.3329,0.3328,0,0,0.3176,0.3253,0.326,0.3282,0.3318,0.3345,0.3374,0.3405,0.3428,0.3437,0.3472,0.3479,0.3486,0.3484,0.348,0.3539,0.3726,0.3536,0.3539,0.3717,0.3994,0.4039,0.4078,0.3692,0.3696,0.3699,0.4109,0,0.3194,0.3252,0.3289,0.3336,0.3364,0.3383,0.3414,0.3443,0.3461,0.35,0.3513,0.3549,0.3514,0.3537,0.3591,0.368,0.3795,0.3624,0.3895,0.3906,0.3946,0.4109,0.3939,0.4288,0.4138,0.4143,0.4147,0,0.3226,0.3261,0.3306,0.3366,0.3381,0.341,0.3459,0.3489,0.3541,0.3561,0.3596,0.3614,0.3714,0.3664,0.3891,0.3784,0.3906,0.3976,0.3993,0.4023,0.4004,0.4185,0.4349,0.4172,0.4194,0.419,0.4187,0,0.3201,0.3275,0.3309,0.3323,0.339,0.3417,0.3452,0.3503,0.3548,0.3616,0.3675,0.3751,0.3848,0.3958,0.4112,0.4023,0.4382,0.4281,0.4459,0.4467,0.437,0.4362,0.4393,0.4474,0.4473,0.4472,0.4471,0,0.3202,0.3228,0.3306,0.3314,0.3382,0.3421,0.3484,0.3528,0.3604,0.3686,0.3718,0.383,0.3922,0.4113,0.4205,0.4472,0.4489,0.4529,0.4578,0.4396,0.4385,0.4258,0.414,0.4487,0.4484,0.4481,0.4478,0,0.3202,0.3215,0.3283,0.3357,0.3371,0.3438,0.3523,0.3569,0.3649,0.3768,0.381,0.3969,0.4222,0.4357,0.4604,0.4651,0.4731,0.4937,0.4764,0.4782,0.4712,0.4603,0.463,0.4506,0.5205,0.5208,0.5211,0,0.3227,0.3252,0.3335,0.3353,0.3391,0.3466,0.3502,0.3584,0.365,0.3866,0.3942,0.4209,0.4354,0.4762,0.4909,0.5155,0.4925,0.5153,0.4917,0.4746,0.4662,0.4453,0.4326,0.4865,0.4865,0.4865,0.4865,0,0.3282,0.3302,0.3332,0.3384,0.3423,0.3489,0.3557,0.3609,0.373,0.3836,0.4018,0.4144,0.456,0.4717,0.5057,0.5164,0.4863,0.5162,0.4995,0.4431,0.4192,0.4081,0.4618,0.4865,0.4865,0.4865,0.4865,0.4865,0.3316,0.3356,0.3355,0.34,0.3431,0.3452,0.345,0.3537,0.3611,0.3719,0.3967,0.4112,0.4449,0.4872,0.4965,0.5009,0.4944,0.4864,0.4781,0.4614,0.4352,0.4944,0.5207,0.5209,0.5211,0.5212,0.5213,0,0.3319,0.3305,0.3353,0.3335,0.3321,0.3375,0.3421,0.3388,0.34,0.3606,0.372,0.4029,0.424,0.4496,0.4717,0.4607,0.4385,0.4483,0.4073,0.3991,0.4551,0.4384,0.4461,0.4461,0.4461,0.4461,0.4461,0.4461,0.3285,0.3262,0.3263,0.3184,0.3176,0.3102,0.3092,0.308,0.317,0.3261,0.3408,0.3607,0.3975,0.4228,0.4217,0.4156,0.38,0.3714,0.3675,0.3964,0.3988,0.401,0.3822,0.378,0.3779,0.2952,0.2945,0.294]},{"header":{"parameterUnit":"m.s-1","parameterCategory":2,"la1":30.2991,"la2":30.254,"lo1":-89.0895,"lo2":-89.0444,"dy":0.0017,"dx":0.0017,"nx":28,"ny":28,"refTime":"2024-08-02T09:00:00:Z","depth":"0","parameterNumber":3,"parameterNumberName":"V-component_of_CURRENTS"},"data":[0,0,0,0,0,0,0,0,0,0,0,0,0,0,0,0,0,0,0,0,0,0,0,0,0,0,0,0,0,0,0,0,0,0,0,0,0,0,0,0,0,0,0,0,0,0,0,0,0,0,0,0,0,0,0,0,0,0,-0.0947,-0.0948,0,-0.1035,-0.1035,-0.1036,-0.1061,-0.1061,-0.1061,-0.1061,-0.1129,-0.113,-0.1132,0,0,0,0,0,0,0,0,0,0,0,0,0,-0.0746,-0.075,-0.0947,-0.0948,-0.0949,-0.1035,-0.1035,-0.1036,-0.1061,-0.1061,-0.1061,-0.1061,-0.1128,-0.113,-0.1133,0,0,0,0,0,0,0,0,0,0,0,0,0,-0.0831,-0.0751,-0.0946,-0.0974,-0.0978,-0.1034,-0.1035,-0.1037,-0.1061,-0.1061,-0.1061,-0.1061,-0.1127,-0.113,-0.1133,-0.1157,0,0,-0.1142,-0.1143,0,0,0,0,0,0,0,0,-0.0826,-0.0838,-0.0969,-0.0973,-0.0977,-0.1039,-0.099,-0.1077,-0.1061,-0.1027,-0.1061,-0.106,-0.1099,-0.1104,-0.1118,-0.1161,-0.1164,-0.1142,-0.1144,-0.1145,-0.1146,0,0,0,0,0,0,0,-0.082,-0.0834,-0.0978,-0.097,-0.0975,-0.0964,-0.0976,-0.1006,-0.1061,-0.103,-0.1032,-0.1047,-0.1101,-0.1115,-0.1119,-0.1165,-0.1142,-0.1145,-0.1147,-0.1148,-0.1233,-0.1234,0,0,0,0,0,0,-0.082,-0.0829,-0.0976,-0.0981,-0.0902,-0.0968,-0.0982,-0.1017,-0.1061,-0.1068,-0.1047,-0.1048,-0.111,-0.1116,-0.1122,-0.1123,-0.1145,-0.1148,-0.115,-0.1233,-0.1233,-0.1234,0,0,0,0,0,0,-0.0815,-0.0833,-0.0972,-0.0908,-0.0925,-0.0973,-0.1012,-0.1019,-0.1037,-0.1075,-0.1081,-0.1059,-0.111,-0.1118,-0.1155,-0.1127,-0.115,-0.1152,-0.1232,-0.1233,-0.1234,-0.1146,0,0,0,0,0,0,-0.0809,-0.0831,-0.0847,-0.0909,-0.0929,-0.1006,-0.1013,-0.1021,-0.1048,-0.105,-0.1087,-0.1093,-0.111,-0.115,-0.1157,-0.1132,-0.1155,-0.1232,-0.1233,-0.1233,-0.1148,-0.1143,-0.1139,0,0,0,0,0,-0.0802,-0.0828,-0.0848,-0.0865,-0.0954,-0.1007,-0.1015,-0.1045,-0.1049,-0.1058,-0.1086,-0.1092,-0.116,-0.1153,-0.1162,-0.1136,-0.1231,-0.1232,-0.1233,-0.115,-0.1144,-0.114,0,0,0,0,0,0,-0.0735,-0.0836,-0.0858,-0.091,-0.0955,-0.1012,-0.1023,-0.1047,-0.1077,-0.1077,-0.1106,-0.1114,-0.1132,-0.1161,-0.1152,-0.1168,-0.1194,-0.1197,-0.1128,-0.1123,-0.1119,-0.1047,-0.1157,0,0,0,0,0,-0.0734,-0.0784,-0.0863,-0.0896,-0.0923,-0.0972,-0.0994,-0.1021,-0.106,-0.1073,-0.1101,-0.1129,-0.1144,-0.1155,-0.1183,-0.1198,-0.1157,-0.1189,-0.1185,-0.118,-0.1131,-0.1063,-0.1045,-0.1237,-0.1237,-0.1237,0,0,-0.0707,-0.0773,-0.0794,-0.0885,-0.0919,-0.0943,-0.0984,-0.1023,-0.1023,-0.1076,-0.1084,-0.1119,-0.1149,-0.1158,-0.1168,-0.1176,-0.1107,-0.1182,-0.1177,-0.1129,-0.1062,-0.1042,-0.1025,-0.1238,-0.1238,-0.1238,0,0,-0.0675,-0.0748,-0.0772,-0.0814,-0.0883,-0.0922,-0.0934,-0.1,-0.1012,-0.1043,-0.1065,-0.1073,-0.113,-0.1117,-0.1123,-0.1114,-0.109,-0.1147,-0.1057,-0.0992,-0.0974,-0.0957,-0.0874,-0.0851,-0.114,-0.1139,-0.1139,0,-0.0629,-0.0678,-0.0778,-0.0806,-0.0816,-0.0908,-0.0903,-0.0941,-0.1003,-0.0987,-0.1036,-0.1049,-0.109,-0.1041,-0.1045,-0.1093,-0.1055,-0.1068,-0.0978,-0.0961,-0.0945,-0.0865,-0.084,-0.1135,-0.1136,-0.1136,-0.1137,0,-0.0612,-0.0641,-0.0655,-0.072,-0.0755,-0.0767,-0.0838,-0.0859,-0.0895,-0.0913,-0.0896,-0.0946,-0.0931,-0.0966,-0.1005,-0.0918,-0.0926,-0.0979,-0.0974,-0.0919,-0.084,-0.0815,-0.1129,-0.1131,-0.1132,-0.1133,0,0,-0.0498,-0.0616,-0.0609,-0.06,-0.0701,-0.0708,-0.0732,-0.0742,-0.0693,-0.0772,-0.0685,-0.0747,-0.0759,-0.0765,-0.081,-0.0771,-0.0649,-0.0826,-0.0825,-0.071,-0.0481,-0.0499,-0.0474,-0.069,-0.0685,-0.0682,-0.0467,0,-0.0424,-0.0433,-0.0525,-0.0488,-0.0479,-0.0568,-0.056,-0.0586,-0.0611,-0.0564,-0.0603,-0.0558,-0.0689,-0.0654,-0.0643,-0.0636,-0.0581,-0.07,-0.058,-0.0574,-0.0568,-0.0445,-0.0508,-0.0323,-0.0443,-0.0439,-0.0436,0,-0.0336,-0.0358,-0.0314,-0.033,-0.0331,-0.0322,-0.0283,-0.0294,-0.0291,-0.0301,-0.0289,-0.0327,-0.0274,-0.0398,-0.033,-0.0402,-0.0421,-0.0435,-0.0428,-0.0445,-0.0545,-0.0402,-0.0274,-0.055,-0.0398,-0.0401,-0.0404,0,-0.0143,-0.0183,-0.0126,-0.0134,-0.0188,-0.0149,-0.0166,-0.0178,-0.0129,-0.0097,-0.0028,-0.0041,0.0031,-0.0019,-0.0089,-0.0187,0.0001,-0.0138,-0.0162,-0.0163,-0.0186,-0.0198,-0.0275,-0.0057,-0.0057,-0.0058,-0.0058,0,0.0011,0.0067,-0.0016,0.0027,0.0138,0.0031,0.0159,0.0134,0.0162,0.0284,0.0153,0.0282,0.0132,0.0179,0.0054,0.006,0.0123,-0.0077,-0.0087,-0.0163,-0.0174,-0.0397,-0.0528,-0.005,-0.0052,-0.0053,-0.0055,0,0.0259,0.0183,0.0264,0.0232,0.0241,0.0339,0.0362,0.0451,0.0436,0.0604,0.0638,0.061,0.0662,0.0515,0.0495,0.0308,0.0151,0.0249,0.0177,0.0153,-0.0201,-0.0323,-0.0286,-0.0369,0.0259,0.0261,0.0262,0,0.0393,0.0454,0.0465,0.0512,0.0517,0.0606,0.067,0.0631,0.072,0.083,0.0954,0.1021,0.1093,0.1027,0.0731,0.056,0.0299,0.0355,0.0132,-0.0162,-0.0306,-0.0404,-0.0486,0.0142,0.0142,0.0142,0.0142,0,0.0656,0.0655,0.0695,0.0783,0.0864,0.0958,0.1037,0.1142,0.1139,0.1264,0.1439,0.1506,0.1404,0.1197,0.0904,0.0711,0.0147,0.0346,0.0068,-0.035,-0.0479,-0.0585,-0.0057,0.0141,0.0141,0.0141,0.0141,0.0141,0.0853,0.0931,0.0942,0.104,0.1138,0.1261,0.1343,0.1438,0.1596,0.1748,0.1805,0.1917,0.1542,0.1119,0.0825,0.0155,0.0197,-0.0118,-0.0214,-0.0266,-0.0434,0.0108,0.0254,0.0254,0.0255,0.0255,0.0256,0,0.1024,0.1052,0.1168,0.1244,0.1371,0.1376,0.1537,0.1604,0.1787,0.1997,0.2122,0.1997,0.1505,0.0959,0.0103,-0.0366,-0.0556,-0.0623,-0.0829,-0.0866,-0.0363,-0.0469,-0.0507,-0.0506,-0.0506,-0.0506,-0.0506,-0.0505,0.1091,0.1181,0.1207,0.1398,0.1472,0.1607,0.1686,0.1826,0.1963,0.2171,0.2241,0.2276,0.1807,0.0318,-0.0771,-0.101,-0.1314,-0.1338,-0.1447,-0.1226,-0.1191,-0.1157,-0.1294,-0.1504,-0.1505,-0.1964,-0.1969,-0.1973]}],[{"header":{"parameterUnit":"m.s-1","parameterCategory":2,"la1":30.2991,"la2":30.254,"lo1":-89.0895,"lo2":-89.0444,"dy":0.0017,"dx":0.0017,"nx":28,"ny":28,"refTime":"2024-08-02T09:00:00:Z","depth":"2","parameterNumber":2,"parameterNumberName":"U-component_of_CURRENTS"},"data":[0,0,0,0,0,0,0,0,0,0,0,0,0,0,0,0,0,0,0,0,0,0,0,0,0,0,0,0,0,0,0,0,0,0,0,0,0,0,0,0,0,0,0,0,0,0,0,0,0,0,0,0,0,0,0,0,0,0,0.1888,0.1888,0,0.1925,0.1926,0.1926,0.1917,0.1916,0.1916,0.1915,0.1921,0.1921,0.1922,0,0,0,0,0,0,0,0,0,0,0,0,0,0.1803,0.1805,0.1888,0.1889,0.1889,0.1925,0.1926,0.1926,0.1917,0.1916,0.1915,0.1915,0.1921,0.1921,0.1922,0,0,0,0,0,0,0,0,0,0,0,0,0,0.1838,0.1805,0.1888,0.1891,0.1891,0.1925,0.1926,0.1926,0.1917,0.1916,0.1915,0.1915,0.192,0.1921,0.1922,0.1944,0,0,0.1925,0.1926,0,0,0,0,0,0,0,0,0.1836,0.1841,0.189,0.1891,0.1891,0.1917,0.1898,0.1931,0.1917,0.1905,0.1915,0.1914,0.1919,0.192,0.1926,0.1944,0.1944,0.1925,0.1926,0.1926,0.1927,0,0,0,0,0,0,0,0.1834,0.1839,0.19,0.189,0.1892,0.1889,0.1892,0.1904,0.1913,0.1906,0.1906,0.1914,0.1919,0.1925,0.1926,0.1944,0.1925,0.1926,0.1927,0.1927,0.1991,0.1992,0,0,0,0,0,0,0.1835,0.1838,0.1899,0.1902,0.1864,0.1891,0.1895,0.1908,0.1914,0.1915,0.1914,0.1913,0.1924,0.1925,0.1926,0.1962,0.1926,0.1927,0.1928,0.199,0.1991,0.1992,0,0,0,0,0,0,0.1833,0.1841,0.1898,0.1872,0.1879,0.1893,0.1908,0.1909,0.1916,0.1921,0.1921,0.192,0.1923,0.1925,0.1944,0.1962,0.1928,0.1928,0.1989,0.199,0.1992,0.2027,0,0,0,0,0,0,0.1831,0.184,0.1857,0.1872,0.1881,0.1921,0.1909,0.1911,0.1923,0.1922,0.1926,0.1926,0.1923,0.1943,0.1945,0.1962,0.1929,0.1987,0.1989,0.1991,0.2025,0.203,0.2035,0,0,0,0,0,0.1828,0.1852,0.1858,0.1866,0.1902,0.1922,0.1926,0.1931,0.1924,0.1933,0.1938,0.1926,0.1958,0.1945,0.1947,0.1965,0.1986,0.1989,0.1991,0.2023,0.2029,0.2034,0,0,0,0,0,0,0.1823,0.1854,0.1861,0.1893,0.1908,0.1921,0.1936,0.1935,0.1947,0.1946,0.1942,0.1943,0.1963,0.1964,0.195,0.199,0.197,0.1973,0.1993,0.1999,0.2003,0.2028,0.193,0,0,0,0,0,0.1832,0.186,0.1879,0.1907,0.1915,0.1926,0.1937,0.194,0.195,0.1954,0.1958,0.1966,0.1978,0.1987,0.1994,0.2022,0.2088,0.2035,0.204,0.2044,0.2066,0.2173,0.2191,0.2001,0.2001,0.2001,0,0,0.184,0.1861,0.1877,0.1909,0.1921,0.1942,0.193,0.1949,0.1965,0.1954,0.1977,0.1981,0.1987,0.2014,0.2024,0.2016,0.2141,0.2047,0.205,0.2071,0.2178,0.2197,0.2214,0.2003,0.2002,0.2002,0,0,0.1863,0.1885,0.1912,0.1927,0.1951,0.196,0.1966,0.1981,0.1984,0.2007,0.2004,0.203,0.2038,0.2061,0.2068,0.2111,0.2159,0.2099,0.215,0.2253,0.2271,0.2286,0.2435,0.2464,0.2107,0.2107,0.2107,0,0.1873,0.1907,0.1921,0.1946,0.1961,0.1968,0.1989,0.2001,0.2021,0.2035,0.2017,0.2065,0.2068,0.2119,0.2132,0.2124,0.2205,0.2124,0.2263,0.2279,0.2295,0.2443,0.2475,0.2109,0.2109,0.2109,0.2108,0,0.1911,0.1938,0.1953,0.199,0.2006,0.2027,0.2041,0.2058,0.206,0.2077,0.2117,0.2131,0.2166,0.2165,0.2161,0.2262,0.2295,0.2253,0.2251,0.2317,0.2469,0.2501,0.2112,0.2111,0.2111,0.211,0,0,0.1941,0.1974,0.198,0.2002,0.2028,0.2049,0.2073,0.2106,0.2145,0.2155,0.2216,0.2231,0.2246,0.2259,0.2262,0.2349,0.2535,0.2352,0.2357,0.2509,0.2817,0.2726,0.2753,0.2517,0.2522,0.2526,0.2894,0,0.1969,0.202,0.202,0.2067,0.2099,0.2101,0.2126,0.2157,0.2187,0.2252,0.2273,0.2336,0.2278,0.232,0.2387,0.25,0.2615,0.2443,0.2724,0.2734,0.265,0.2784,0.2463,0.2752,0.2925,0.2931,0.2935,0,0.2017,0.2043,0.2094,0.2119,0.2129,0.2161,0.2219,0.2244,0.232,0.2336,0.2392,0.2425,0.2548,0.2491,0.2725,0.262,0.273,0.2813,0.2828,0.2751,0.27,0.2706,0.2804,0.2988,0.2984,0.298,0.2977,0,0.2072,0.2097,0.2141,0.2155,0.2188,0.2212,0.2234,0.2293,0.2355,0.2438,0.2526,0.2596,0.2719,0.282,0.2963,0.2874,0.3251,0.3146,0.3181,0.3179,0.2966,0.2934,0.3344,0.3343,0.3343,0.3342,0.334,0,0.212,0.2158,0.2178,0.2218,0.2283,0.2272,0.2371,0.2387,0.2478,0.2592,0.2602,0.2738,0.2814,0.3008,0.3071,0.325,0.3347,0.3245,0.3272,0.297,0.2936,0.3159,0.3133,0.3355,0.3352,0.335,0.3347,0,0.2192,0.2202,0.2275,0.2308,0.2333,0.2395,0.2491,0.2541,0.262,0.2787,0.2838,0.2957,0.3169,0.327,0.3501,0.3437,0.3584,0.3627,0.3287,0.3263,0.3423,0.3395,0.37,0.37,0.37,0.37,0.37,0,0.2233,0.2277,0.2371,0.2404,0.243,0.2517,0.256,0.2627,0.2694,0.2927,0.3008,0.3262,0.336,0.3641,0.3592,0.3698,0.3753,0.3469,0.3195,0.3467,0.3464,0.3434,0.3407,0.2972,0.2966,0.2961,0.2957,0,0.2266,0.2313,0.2333,0.2429,0.2491,0.2585,0.2659,0.274,0.283,0.2987,0.3162,0.3274,0.3489,0.3386,0.3487,0.3486,0.3388,0.337,0.3809,0.2887,0.2797,0.2787,0.2781,0.2914,0.2918,0.2921,0.2924,0.2925,0.2234,0.2259,0.2259,0.2347,0.2435,0.2503,0.2528,0.2628,0.2736,0.2848,0.3076,0.3103,0.3143,0.3057,0.3067,0.3052,0.3237,0.3055,0.3064,0.3079,0.2884,0.2793,0.288,0.2884,0.2887,0.289,0.2893,0,0.2054,0.207,0.2146,0.2181,0.2213,0.2345,0.2443,0.2419,0.2471,0.2656,0.2752,0.2487,0.2477,0.2589,0.2468,0.2487,0.2402,0.2428,0.2266,0.2312,0.2352,0.2112,0.1908,0.1906,0.1903,0.1901,0,0,0.1907,0.1848,0.1896,0.1863,0.1945,0.1926,0.1953,0.2013,0.2077,0.2071,0.2074,0.2242,0.2387,0.2032,0.2053,0.1967,0.2108,0.1901,0.2683,0.253,0.2566,0.2708,0.2391,0,0,0,0,0]},{"header":{"parameterUnit":"m.s-1","parameterCategory":2,"la1":30.2991,"la2":30.254,"lo1":-89.0895,"lo2":-89.0444,"dy":0.0017,"dx":0.0017,"nx":28,"ny":28,"refTime":"2024-08-02T09:00:00:Z","depth":"2","parameterNumber":3,"parameterNumberName":"V-component_of_CURRENTS"},"data":[0,0,0,0,0,0,0,0,0,0,0,0,0,0,0,0,0,0,0,0,0,0,0,0,0,0,0,0,0,0,0,0,0,0,0,0,0,0,0,0,0,0,0,0,0,0,0,0,0,0,0,0,0,0,0,0,0,0,-0.0198,-0.0199,0,-0.0266,-0.0267,-0.0268,-0.034,-0.0342,-0.0343,-0.0344,-0.0429,-0.043,-0.0432,0,0,0,0,0,0,0,0,0,0,0,0,0,-0.0117,-0.0118,-0.0198,-0.0199,-0.02,-0.0266,-0.0267,-0.0268,-0.034,-0.0342,-0.0343,-0.0344,-0.0429,-0.043,-0.0432,0,0,0,0,0,0,0,0,0,0,0,0,0,-0.0164,-0.0118,-0.0198,-0.0245,-0.025,-0.0266,-0.0267,-0.0268,-0.034,-0.0342,-0.0343,-0.0345,-0.0428,-0.043,-0.0432,-0.0409,0,0,-0.0438,-0.0438,0,0,0,0,0,0,0,0,-0.0161,-0.0167,-0.0237,-0.0242,-0.0247,-0.0298,-0.027,-0.0316,-0.0339,-0.0304,-0.0344,-0.0346,-0.0386,-0.0392,-0.0399,-0.0413,-0.0417,-0.0438,-0.0439,-0.044,-0.044,0,0,0,0,0,0,0,-0.0158,-0.0164,-0.0224,-0.0238,-0.0244,-0.0258,-0.0267,-0.0279,-0.0334,-0.0308,-0.0313,-0.0322,-0.0389,-0.0397,-0.0401,-0.0418,-0.0438,-0.0439,-0.044,-0.0441,-0.0487,-0.0487,0,0,0,0,0,0,-0.0151,-0.0161,-0.0222,-0.0226,-0.0209,-0.0258,-0.0268,-0.0279,-0.0334,-0.0344,-0.0321,-0.0326,-0.0393,-0.0399,-0.0405,-0.0416,-0.044,-0.0441,-0.0442,-0.0487,-0.0487,-0.0487,0,0,0,0,0,0,-0.0149,-0.0156,-0.0219,-0.0196,-0.0205,-0.0258,-0.027,-0.0279,-0.0309,-0.0344,-0.0355,-0.0343,-0.0394,-0.0402,-0.0431,-0.0419,-0.0442,-0.0444,-0.0486,-0.0487,-0.0487,-0.0417,0,0,0,0,0,0,-0.0146,-0.0154,-0.0161,-0.0195,-0.0206,-0.0229,-0.0268,-0.0279,-0.0311,-0.0318,-0.0366,-0.0375,-0.0396,-0.0428,-0.0432,-0.0422,-0.0445,-0.0486,-0.0487,-0.0487,-0.0419,-0.0415,-0.0411,0,0,0,0,0,-0.0143,-0.0142,-0.0161,-0.0169,-0.0214,-0.0229,-0.0235,-0.0277,-0.031,-0.0313,-0.0354,-0.0375,-0.0433,-0.0429,-0.0434,-0.0424,-0.0486,-0.0486,-0.0487,-0.0421,-0.0415,-0.0411,0,0,0,0,0,0,-0.0108,-0.015,-0.0172,-0.0184,-0.0206,-0.0242,-0.0253,-0.0282,-0.0315,-0.0334,-0.0371,-0.0381,-0.0404,-0.0426,-0.0421,-0.0442,-0.0464,-0.0466,-0.0412,-0.0408,-0.0404,-0.036,-0.0447,0,0,0,0,0,-0.0103,-0.0118,-0.0152,-0.0163,-0.0176,-0.0217,-0.0232,-0.0261,-0.0294,-0.0313,-0.0348,-0.0385,-0.0404,-0.0417,-0.0442,-0.0445,-0.0463,-0.0446,-0.0442,-0.0438,-0.0409,-0.043,-0.0424,-0.0488,-0.0488,-0.0488,0,0,-0.0095,-0.0118,-0.0129,-0.0157,-0.0183,-0.0184,-0.0231,-0.0256,-0.0252,-0.0314,-0.0332,-0.0374,-0.0405,-0.0414,-0.0425,-0.0433,-0.0436,-0.0439,-0.0435,-0.0407,-0.043,-0.0423,-0.0417,-0.0488,-0.0488,-0.0488,0,0,-0.008,-0.0106,-0.0115,-0.0125,-0.0161,-0.0173,-0.0182,-0.0225,-0.0242,-0.0262,-0.0305,-0.0334,-0.0376,-0.0382,-0.0392,-0.0377,-0.0417,-0.0404,-0.0339,-0.0361,-0.0355,-0.035,-0.0383,-0.0381,-0.0397,-0.0397,-0.0396,0,-0.0076,-0.0086,-0.0116,-0.0119,-0.0122,-0.0166,-0.0161,-0.0169,-0.0216,-0.0215,-0.0264,-0.0312,-0.0349,-0.0329,-0.0332,-0.0362,-0.0393,-0.0352,-0.0352,-0.0347,-0.0343,-0.0378,-0.0377,-0.0393,-0.0394,-0.0394,-0.0394,0,-0.0062,-0.007,-0.0073,-0.0087,-0.0083,-0.0091,-0.0099,-0.0106,-0.0142,-0.0153,-0.0168,-0.0221,-0.0246,-0.0267,-0.0295,-0.028,-0.0319,-0.0347,-0.0356,-0.0332,-0.0372,-0.0372,-0.0388,-0.039,-0.0391,-0.0391,0,0,-0.008,-0.0067,-0.0075,-0.0063,-0.0071,-0.0064,-0.004,-0.0027,-0.0012,-0.0056,-0.004,-0.0079,-0.0121,-0.0134,-0.018,-0.0192,-0.0207,-0.0255,-0.0257,-0.0272,-0.0269,-0.0348,-0.0357,-0.0245,-0.0244,-0.0244,-0.0314,0,-0.0076,-0.0055,-0.0049,-0.0021,-0.001,-0.0009,0.0024,0.0038,0.003,0.0038,0.0008,-0.0009,-0.0064,-0.0096,-0.0108,-0.0179,-0.0202,-0.0186,-0.0303,-0.0305,-0.0366,-0.0357,-0.0305,-0.0368,-0.0315,-0.0315,-0.0315,0,-0.0082,-0.0062,-0.0029,0.002,0.0023,0.0045,0.0093,0.0112,0.0139,0.0126,0.0122,0.0085,0.0077,0.0002,-0.0068,-0.0063,-0.0155,-0.0213,-0.0219,-0.0307,-0.0384,-0.0382,-0.037,-0.0316,-0.0316,-0.0316,-0.0316,0,-0.0083,-0.0053,-0.0017,-0.0004,0.0047,0.0069,0.0093,0.0131,0.0165,0.0175,0.0191,0.0167,0.0141,0.0057,-0.0059,-0.0077,-0.015,-0.0198,-0.0349,-0.0357,-0.0338,-0.0346,-0.0255,-0.0255,-0.0255,-0.0255,-0.0254,0,-0.008,-0.0055,-0.0016,0.0003,0.0063,0.0079,0.0136,0.0161,0.0196,0.0258,0.0226,0.0259,0.0149,0.0099,-0.0022,-0.0176,-0.0128,-0.0325,-0.0373,-0.0319,-0.0323,-0.0295,-0.0299,-0.0257,-0.0257,-0.0256,-0.0256,0,-0.0069,-0.0056,-0.0006,0.0043,0.0065,0.0105,0.0174,0.0216,0.0237,0.0314,0.0319,0.0322,0.0252,0.0141,-0.0002,-0.014,-0.0276,-0.0351,-0.0287,-0.0327,-0.0482,-0.0482,-0.0529,-0.0533,-0.0535,-0.0538,-0.054,0,-0.0044,-0.003,0.0032,0.0063,0.0089,0.0144,0.0191,0.0232,0.0281,0.0365,0.0407,0.0372,0.0369,0.0139,-0.0081,-0.0302,-0.032,-0.0452,-0.0482,-0.0465,-0.0507,-0.0502,-0.0498,-0.0435,-0.0436,-0.0437,-0.0437,0,-0.0004,-0.0001,0.0039,0.0101,0.015,0.0228,0.0288,0.0338,0.0399,0.0469,0.0542,0.0545,0.0359,0.0162,-0.0156,-0.0301,-0.0412,-0.0482,-0.0451,-0.0389,-0.0386,-0.0424,-0.0421,-0.0444,-0.0443,-0.0443,-0.0443,-0.0442,0.0025,0.0053,0.0078,0.0153,0.0212,0.0295,0.0371,0.0432,0.0525,0.0667,0.064,0.068,0.0435,0.0062,-0.0202,-0.0475,-0.0489,-0.0595,-0.0587,-0.058,-0.0571,-0.0575,-0.0667,-0.0668,-0.0668,-0.0669,-0.0669,0,0.0073,0.0085,0.0133,0.0209,0.029,0.0328,0.0438,0.0522,0.0645,0.0765,0.0836,0.0625,0.0395,0.0138,-0.0281,-0.058,-0.0547,-0.0652,-0.054,-0.0534,-0.0528,-0.0512,-0.0594,-0.0594,-0.0595,-0.0595,0,0,0.0083,0.0126,0.0148,0.0268,0.0342,0.048,0.0567,0.0679,0.0773,0.0871,0.0918,0.0921,0.0529,0.0238,-0.0127,-0.0354,-0.037,-0.0389,-0.0422,-0.0241,-0.0231,-0.0475,-0.0442,0,0,0,0,0]}],[{"header":{"parameterUnit":"m.s-1","parameterCategory":2,"la1":30.2991,"la2":30.254,"lo1":-89.0895,"lo2":-89.0444,"dy":0.0017,"dx":0.0017,"nx":28,"ny":28,"refTime":"2024-08-02T09:00:00:Z","depth":"4","parameterNumber":2,"parameterNumberName":"U-component_of_CURRENTS"},"data":[0,0,0,0,0,0,0,0,0,0,0,0,0,0,0,0,0,0,0,0,0,0,0,0,0,0,0,0,0,0,0,0,0,0,0,0,0,0,0,0,0,0,0,0,0,0,0,0,0,0,0,0,0,0,0,0,0,0,0.0655,0.0656,0,0.0751,0.0752,0.0753,0.0826,0.0826,0.0827,0.0828,0.0901,0.0903,0.0904,0,0,0,0,0,0,0,0,0,0,0,0,0,0.0529,0.0531,0.0655,0.0656,0.0658,0.075,0.0752,0.0753,0.0825,0.0826,0.0827,0.0828,0.0901,0.0903,0.0904,0,0,0,0,0,0,0,0,0,0,0,0,0,0.06,0.0532,0.0655,0.0705,0.071,0.075,0.0752,0.0753,0.0825,0.0826,0.0827,0.0828,0.09,0.0902,0.0904,0.0896,0,0,0.091,0.0911,0,0,0,0,0,0,0,0,0.0596,0.0605,0.0696,0.0702,0.0708,0.0777,0.0734,0.08,0.0825,0.0782,0.0828,0.0829,0.0857,0.0863,0.0879,0.09,0.0903,0.0911,0.0912,0.0913,0.0913,0,0,0,0,0,0,0,0.0591,0.0601,0.0693,0.0698,0.0705,0.072,0.0732,0.0747,0.0812,0.0786,0.0791,0.0801,0.086,0.0877,0.0881,0.0904,0.0911,0.0912,0.0914,0.0914,0.1058,0.106,0,0,0,0,0,0,0.0579,0.0596,0.069,0.0696,0.0653,0.0722,0.0734,0.0754,0.0813,0.0823,0.08,0.0804,0.0873,0.0878,0.0884,0.0981,0.0913,0.0915,0.0916,0.1055,0.1058,0.1061,0,0,0,0,0,0,0.0576,0.0587,0.0686,0.0648,0.0661,0.0723,0.0744,0.0755,0.0801,0.0824,0.0834,0.0838,0.0874,0.0881,0.0935,0.098,0.0915,0.0917,0.1052,0.1056,0.106,0.1108,0,0,0,0,0,0,0.0572,0.0585,0.0601,0.0647,0.0663,0.0727,0.0744,0.0756,0.0804,0.0811,0.0859,0.0866,0.0875,0.0932,0.0937,0.0982,0.0919,0.1049,0.1054,0.1058,0.1103,0.1113,0.1122,0,0,0,0,0,0.0567,0.0583,0.0601,0.0613,0.0681,0.0728,0.0739,0.0785,0.0805,0.0829,0.0872,0.0866,0.0968,0.0936,0.0941,0.0987,0.1046,0.1052,0.1058,0.1099,0.1111,0.1121,0,0,0,0,0,0,0.0535,0.0593,0.0614,0.0647,0.0692,0.0741,0.0767,0.0798,0.085,0.0866,0.0887,0.0897,0.0956,0.0971,0.0935,0.1047,0.101,0.1017,0.104,0.1051,0.106,0.1096,0.0921,0,0,0,0,0,0.0533,0.0563,0.0618,0.0645,0.067,0.0723,0.075,0.0787,0.0834,0.086,0.0896,0.0941,0.098,0.1015,0.1038,0.1099,0.1089,0.1138,0.1147,0.1155,0.1191,0.1192,0.1204,0.108,0.108,0.108,0,0,0.0521,0.0562,0.0575,0.064,0.0679,0.0731,0.0744,0.0797,0.0854,0.0857,0.0943,0.096,0.0998,0.1064,0.1095,0.1089,0.1183,0.1162,0.1168,0.1201,0.1199,0.1211,0.1221,0.1084,0.1083,0.1083,0,0,0.0512,0.0557,0.058,0.0626,0.0695,0.0744,0.0766,0.0835,0.0883,0.0959,0.0976,0.1031,0.1096,0.1137,0.1165,0.1244,0.1215,0.1255,0.135,0.1349,0.1359,0.1367,0.135,0.1357,0.1279,0.1279,0.128,0,0.0497,0.0556,0.0593,0.0636,0.0697,0.0756,0.0818,0.0866,0.0947,0.0993,0.0999,0.111,0.1138,0.1222,0.1274,0.1264,0.1254,0.1296,0.1358,0.1367,0.1374,0.1355,0.1362,0.1282,0.1282,0.1282,0.1282,0,0.0511,0.0572,0.0595,0.0685,0.0743,0.0812,0.0892,0.0956,0.1027,0.1075,0.1168,0.1207,0.1286,0.13,0.1328,0.1411,0.1379,0.1345,0.132,0.1389,0.1365,0.1371,0.1287,0.1286,0.1285,0.1284,0,0,0.0461,0.0585,0.0599,0.0655,0.0796,0.0834,0.0951,0.1066,0.113,0.1206,0.1296,0.1386,0.1409,0.1447,0.1465,0.1496,0.1543,0.1477,0.1475,0.1445,0.1536,0.1485,0.1486,0.1513,0.1515,0.1516,0.1489,0,0.0483,0.0568,0.065,0.0757,0.0821,0.0935,0.103,0.1128,0.1222,0.1307,0.137,0.1464,0.1461,0.1527,0.1547,0.1545,0.1566,0.1554,0.1491,0.149,0.1422,0.1494,0.1522,0.1493,0.1494,0.1495,0.1495,0,0.0492,0.0557,0.0681,0.0811,0.085,0.096,0.1134,0.1236,0.1368,0.144,0.1539,0.1554,0.1658,0.1632,0.1654,0.1646,0.1624,0.1601,0.1597,0.1547,0.1451,0.1418,0.1505,0.1505,0.1504,0.1503,0.1503,0,0.0447,0.0578,0.0692,0.0744,0.0904,0.1026,0.1163,0.1313,0.1394,0.159,0.1636,0.1702,0.178,0.1749,0.1728,0.1703,0.1709,0.1643,0.1561,0.1555,0.1581,0.1572,0.1656,0.1656,0.1656,0.1656,0.1656,0,0.0463,0.0538,0.0702,0.0765,0.0898,0.1053,0.1225,0.1361,0.1536,0.1583,0.1741,0.1747,0.1822,0.1802,0.1751,0.1688,0.1723,0.1607,0.1562,0.16,0.1594,0.1583,0.1575,0.1655,0.1655,0.1655,0.1655,0,0.0425,0.053,0.064,0.0829,0.09,0.1034,0.1282,0.1362,0.1582,0.1658,0.1733,0.1835,0.1838,0.1839,0.1809,0.1735,0.1669,0.1634,0.1697,0.1649,0.1497,0.1492,0.1523,0.1521,0.152,0.1518,0.1517,0,0.0419,0.0481,0.0659,0.0721,0.0855,0.1056,0.1164,0.1407,0.1456,0.1625,0.16,0.1719,0.1735,0.1668,0.1703,0.1649,0.1623,0.1607,0.1555,0.154,0.1492,0.1489,0.1486,0.1515,0.1515,0.1514,0.1514,0,0.039,0.0474,0.0548,0.0672,0.0817,0.0918,0.1093,0.1108,0.1308,0.1461,0.1462,0.1515,0.1536,0.1561,0.1609,0.153,0.1629,0.1591,0.1592,0.1542,0.1531,0.1484,0.1483,0.1509,0.151,0.151,0.1511,0,0.0354,0.038,0.0471,0.0589,0.0709,0.0762,0.0875,0.0938,0.1039,0.1204,0.1169,0.1312,0.1444,0.1493,0.1465,0.1488,0.1439,0.1387,0.1397,0.1403,0.1391,0.136,0.1272,0,0,0,0,0,0.0294,0.0299,0.0366,0.0466,0.0576,0.066,0.0769,0.0861,0.0991,0.0951,0.1077,0.1081,0.1184,0.1269,0.1262,0.139,0.1426,0.1377,0.1364,0.1482,0.1488,0.1492,0,0,0,0,0,0,0.0239,0.0277,0.031,0.0342,0.0393,0.0499,0.0575,0.0671,0.065,0.0797,0.0852,0.1017,0.1119,0.1166,0.1239,0.1266,0.1237,0.1486,0.1484,0.1479,0.1484,0.1489,0.1495,0,0,0,0,0]},{"header":{"parameterUnit":"m.s-1","parameterCategory":2,"la1":30.2991,"la2":30.254,"lo1":-89.0895,"lo2":-89.0444,"dy":0.0017,"dx":0.0017,"nx":28,"ny":28,"refTime":"2024-08-02T09:00:00:Z","depth":"4","parameterNumber":3,"parameterNumberName":"V-component_of_CURRENTS"},"data":[0,0,0,0,0,0,0,0,0,0,0,0,0,0,0,0,0,0,0,0,0,0,0,0,0,0,0,0,0,0,0,0,0,0,0,0,0,0,0,0,0,0,0,0,0,0,0,0,0,0,0,0,0,0,0,0,0,0,0.0409,0.0408,0,0.0373,0.0372,0.0372,0.0349,0.0349,0.0349,0.0349,0.0282,0.028,0.0279,0,0,0,0,0,0,0,0,0,0,0,0,0,0.0394,0.0395,0.0409,0.0408,0.0408,0.0373,0.0372,0.0372,0.0349,0.0349,0.0349,0.0349,0.0283,0.0281,0.0279,0,0,0,0,0,0,0,0,0,0,0,0,0,0.0383,0.0395,0.0409,0.0393,0.0392,0.0373,0.0372,0.0372,0.0349,0.0349,0.0349,0.0349,0.0283,0.0281,0.0278,0.0262,0,0,0.027,0.0269,0,0,0,0,0,0,0,0,0.0383,0.0383,0.0396,0.0394,0.0393,0.0367,0.0343,0.0334,0.0349,0.0364,0.0349,0.0349,0.0308,0.0304,0.0296,0.0259,0.0256,0.027,0.0268,0.0267,0.0266,0,0,0,0,0,0,0,0.0384,0.0384,0.0393,0.0396,0.0394,0.0367,0.0366,0.0341,0.0335,0.0363,0.0361,0.0359,0.0307,0.0298,0.0294,0.0255,0.027,0.0268,0.0266,0.0265,0.0201,0.0201,0,0,0,0,0,0,0.0395,0.0385,0.0394,0.0392,0.0389,0.0368,0.0366,0.0374,0.0336,0.0331,0.0359,0.0358,0.0303,0.0297,0.0291,0.0267,0.0267,0.0265,0.0263,0.0201,0.0201,0.0201,0,0,0,0,0,0,0.0395,0.0396,0.0396,0.0388,0.0386,0.0368,0.0377,0.0373,0.0372,0.0334,0.0328,0.0364,0.0303,0.0295,0.0278,0.0264,0.0263,0.0261,0.0201,0.0201,0.0201,0.0219,0,0,0,0,0,0,0.0395,0.0397,0.0409,0.039,0.0387,0.0396,0.0377,0.0373,0.0371,0.037,0.0335,0.0329,0.0302,0.0282,0.0275,0.026,0.0259,0.0201,0.0201,0.0201,0.0219,0.022,0.0221,0,0,0,0,0,0.0395,0.0413,0.041,0.0411,0.0404,0.0397,0.0393,0.0378,0.0372,0.0376,0.0352,0.033,0.0275,0.028,0.0272,0.0256,0.0201,0.0201,0.0201,0.0218,0.022,0.0221,0,0,0,0,0,0,0.0411,0.0412,0.0408,0.0425,0.0416,0.0394,0.0399,0.0386,0.037,0.0371,0.0333,0.0325,0.0301,0.0282,0.0288,0.0238,0.0233,0.0231,0.0249,0.025,0.0251,0.0218,0.0257,0,0,0,0,0,0.0422,0.0437,0.0426,0.044,0.0441,0.0421,0.0418,0.0408,0.039,0.0384,0.0358,0.0327,0.0292,0.0276,0.0249,0.0226,0.0175,0.021,0.0211,0.0212,0.0181,0.0091,0.008,0.02,0.02,0.02,0,0,0.043,0.0434,0.0441,0.0445,0.0439,0.0432,0.0419,0.0422,0.0406,0.0379,0.0358,0.0333,0.0288,0.0259,0.0246,0.0242,0.0159,0.0211,0.0212,0.018,0.0089,0.0077,0.0066,0.02,0.02,0.02,0,0,0.0444,0.0462,0.0471,0.0466,0.0464,0.0454,0.0458,0.0442,0.0429,0.0411,0.0377,0.0338,0.0309,0.0254,0.0225,0.0213,0.0168,0.0222,0.0194,0.0109,0.0098,0.0087,0.0037,0.0021,0.022,0.022,0.022,0,0.0449,0.0461,0.0471,0.0471,0.0465,0.0465,0.0459,0.0445,0.0422,0.0392,0.0411,0.0316,0.0291,0.0207,0.0206,0.0209,0.0171,0.0196,0.0108,0.0095,0.0084,0.0035,0.0017,0.0221,0.0221,0.0221,0.022,0,0.0458,0.0465,0.0473,0.0472,0.0471,0.0473,0.0456,0.0445,0.0436,0.0403,0.034,0.0301,0.0233,0.0229,0.0214,0.0119,0.0125,0.0121,0.0101,0.0072,0.0024,0.0005,0.0222,0.0222,0.0221,0.0221,0,0,0.0461,0.0475,0.0475,0.0462,0.0471,0.046,0.0448,0.0409,0.0367,0.0348,0.0279,0.0221,0.0192,0.0156,0.013,0.0059,-0.0033,0.0062,0.0057,0.0006,-0.0199,-0.0145,-0.016,-0.0047,-0.0051,-0.0054,-0.0188,0,0.0456,0.0452,0.0466,0.0449,0.0438,0.0435,0.0413,0.0377,0.0349,0.0289,0.0225,0.017,0.0168,0.0143,0.0065,-0.0012,-0.0087,0.0004,-0.016,-0.0165,-0.012,-0.0183,-0.0066,-0.0203,-0.0207,-0.021,-0.0212,0,0.0444,0.0443,0.0441,0.041,0.0406,0.0412,0.0361,0.0343,0.0267,0.0241,0.0169,0.0122,0.0016,0.0034,-0.0147,-0.0083,-0.015,-0.0204,-0.0211,-0.0192,-0.0148,-0.0176,-0.0247,-0.0244,-0.0242,-0.0239,-0.0237,0,0.0411,0.0408,0.0409,0.0405,0.0389,0.0389,0.0389,0.0334,0.0304,0.0226,0.0189,0.0055,0.0008,-0.0119,-0.0217,-0.0192,-0.0405,-0.0385,-0.0409,-0.0404,-0.0418,-0.0406,-0.0537,-0.0537,-0.0537,-0.0537,-0.0536,0,0.0377,0.0369,0.0405,0.0397,0.0382,0.0388,0.0363,0.0334,0.0296,0.0254,0.0178,0.0114,-0.0034,-0.0159,-0.0255,-0.0386,-0.0442,-0.0446,-0.0455,-0.0399,-0.0383,-0.043,-0.0415,-0.0542,-0.054,-0.054,-0.0539,0,0.0335,0.0358,0.0352,0.0364,0.0373,0.0374,0.0387,0.0362,0.0335,0.0285,0.0267,0.0139,-0.0007,-0.0158,-0.0358,-0.0415,-0.0554,-0.0584,-0.0505,-0.0502,-0.0486,-0.0469,-0.0646,-0.0646,-0.0645,-0.0645,-0.0645,0,0.0308,0.0313,0.0341,0.0352,0.0378,0.0391,0.0403,0.0395,0.0385,0.0301,0.0277,0.0133,0.0037,-0.0207,-0.0358,-0.0558,-0.0565,-0.0634,-0.0583,-0.0517,-0.0508,-0.0491,-0.0475,-0.0644,-0.0644,-0.0644,-0.0644,0,0.0266,0.0303,0.0311,0.0358,0.0393,0.0399,0.0431,0.0409,0.04,0.0356,0.0283,0.0157,-0.0006,-0.0186,-0.0336,-0.0476,-0.0594,-0.0631,-0.0632,-0.0585,-0.0517,-0.0505,-0.0489,-0.0643,-0.0643,-0.0643,-0.0644,0,0.026,0.0271,0.0329,0.035,0.0409,0.0441,0.042,0.0429,0.0419,0.0343,0.0315,0.0152,0.0052,-0.0146,-0.0293,-0.0419,-0.0442,-0.0465,-0.0475,-0.0478,-0.0375,-0.026,-0.0348,0,0,0,0,0,0.0247,0.0275,0.0312,0.0355,0.0421,0.0454,0.0466,0.0446,0.0412,0.038,0.0359,0.0221,0.0017,-0.0093,-0.021,-0.0299,-0.0478,-0.044,-0.0512,-0.0638,-0.0639,-0.0541,0,0,0,0,0,0,0.0249,0.0298,0.0317,0.0392,0.0416,0.0493,0.0501,0.046,0.0437,0.038,0.0269,0.0213,0.0001,0.0091,-0.0205,-0.0249,-0.0304,-0.0545,-0.0547,-0.0637,-0.0638,-0.0639,-0.0539,0,0,0,0,0]}]]